Regional Weather Roundup
Issued by NWS Grand Forks, ND

Home | Current Version | Previous Version | Text Only | Print | Product List | Glossary Off
Versions: 1 2 3 4 5 6 7 8 9 10 11 12 13 14 15 16 17 18 19 20 21 22 23 24 25 26 27 28 29 30 31 32 33 34 35 36 37 38 39 40 41 42 43 44 45 46 47 48 49 50

195
ASUS43 KFGF 290431
RWRFGF
PRAIRIE TO PINES  WEATHER ROUNDUP
NATIONAL WEATHER SERVICE EASTERN NORTH DAKOTA/GRAND FORKS ND
1100 PM CDT WED JUN 28 2017

 **SATELLITE DATA USED TO AUGMENT SKY COVER AT AUTOMATED STATIONS**
 *****  WEATHER ACROSS EASTERN NORTH DAKOTA  *****

CITY           SKY/WX    TMP DP  RH WIND       PRES   REMARKS
GRAND FORKS    CLOUDY    64  63  96 NE6       29.69R
GRAND FRKS AFB FOG       57  57 100 CALM      29.69R VSB 3/8
DEVILS LAKE    FAIR      60  55  83 NE9       29.73R
FARGO          MOCLDY    64  62  93 NW6       29.68R
WAHPETON ARPT  FAIR      63  59  88 N6        29.69S
$$

 ***** WEATHER ACROSS CENTRAL AND WESTERN NORTH DAKOTA  *****

CITY           SKY/WX    TMP DP  RH WIND       PRES   REMARKS
BISMARCK       FAIR      66  53  63 E6        29.75S
MINOT          FAIR      62  49  62 NW6       29.74R
JAMESTOWN      FAIR      64  51  62 W6        29.73R
MINOT AFB      FAIR      59  50  72 N5        29.74R
GARRISON         N/A     60  50  69 NE3       29.75R
WILLISTON      FAIR      63  49  60 N3        29.77R
DICKINSON      FAIR      60  43  53 S3        29.76R
HETTINGER      CLOUDY    69  37  30 E9        29.80R
$$

 *****  OTHER AIRPORT OBSERVATIONS IN OUR AREA  *****

CITY           SKY/WX    TMP DP  RH WIND       PRES   REMARKS
WALHALLA       NOT AVBL
GRAFTON AIRPOR CLOUDY    61  61 100 CALM      29.72R
VALLEY CITY AR FAIR      61  61 100 CALM      29.74R FOG
CANDO          NOT AVBL
CAVALIER APRT  FAIR      61  61 100 CALM      29.70R
GWINNER        CLOUDY    63  59  88 CALM      29.71S
SHEYENNE NWR     N/A     64  61  90 NW2       29.95
ROLLA            N/A     57  52  82 NW7       29.75S
 ***** THE ABOVE OBSERVATIONS ARE NON NWS ARE NOT QUALITY
       CONTROLLED AND MAY MIS-REPORT RAIN FOR SNOW...
$$

  *****  WEATHER ACROSS NORTHERN MINNESOTA  *****

CITY           SKY/WX    TMP DP  RH WIND       PRES   REMARKS
FLAG ISLAND    FAIR      61  59  94 N8        29.67S
WARROAD        CLOUDY    59  55  88 NW5       29.69R
ROSEAU         CLOUDY    61  55  82 NW3       29.68S
HALLOCK        FOG       59  57  94 NW5       29.70R VSB 1/2
THF RVR FALLS  CLOUDY    60  59  96 N9        29.69R
BAUDETTE       MOCLDY    61  60  97 NE7       29.64S
WASKISH        DRIZZLE   61  57  88 N3        29.65R
CROOKSTON      CLOUDY    61  61 100 N6        29.70R
STEPHEN NDAWN    N/A     59  57  94 W2          N/A
GREENBUSH NDAW   N/A     59  57  94 NE3         N/A
$$
  *****  WEATHER ACROSS CENTRAL AND WEST MINNESOTA  *****

CITY           SKY/WX    TMP DP  RH WIND       PRES   REMARKS
FOSSTON        CLOUDY    57  57 100 N8        29.69R
BEMIDJI        RAIN      59  59  99 N10       29.65R
PARK RAPIDS    FAIR      62  56  80 NW8       29.64R
ELBOW LAKE     CLOUDY    64  60  87 NW12      29.70R
WADENA         FAIR      61  57  88 W7        29.66R
DETROIT LAKES  CLOUDY    61  59  94 NW13      29.70R
MOORHEAD       FAIR      63  61  94 NW5       29.70R
FERGUS FALLS   CLOUDY    63  59  88 N13G21    29.68R
MORRIS MN      FAIR      64  61  88 NW5       29.68R
STAPLES        CLOUDY    61  59  94 NW13      29.64R
$$
  *****  WEATHER ELSEWHERE ACROSS MINNESOTA  *****

CITY           SKY/WX    TMP DP  RH WIND       PRES   REMARKS
DULUTH         LGT RAIN  59  59 100 W6        29.53R FOG
INTRNTL FALLS  CLOUDY    61  59  93 N6        29.64S
ELY            CLOUDY    57  57 100 NE5       29.58S
CLOQUET        DRIZZLE   57  55  94 NW5       29.54R
WHEATON        FAIR      64  61  88 NW6       29.71R
BRAINERD       CLOUDY    61  59  93 NW9       29.61R
HIBBING        CLOUDY    58  58 100 N7        29.57R
ALEXANDRIA     CLOUDY    64  58  80 N13G23    29.68R
SAINT CLOUD    CLOUDY    66  61  84 W15       29.61R
MINNEAPOLIS    MOCLDY    70  60  70 NW15      29.62R
$$

  *****  WEATHER ACROSS SOUTH DAKOTA  *****

CITY           SKY/WX    TMP DP  RH WIND       PRES   REMARKS
SIOUX FALLS    FAIR      65  59  81 N6        29.70R
BROOKINGS      FAIR      65  53  65 NE3       29.73R
WATERTOWN      FAIR      63  59  87 CALM      29.72R
HURON          FAIR      64  46  52 N6        29.71R
SISSETON         N/A     64  61  90 NW8       29.69R
ABERDEEN       FAIR      62  46  55 N6        29.72R
MITCHELL       FAIR      69  46  43 N5        29.71R
PIERRE         FAIR      69  35  28 NE10      29.70F
MOBRIDGE       FAIR      68  41  37 NE9       29.73S
RAPID CITY     CLOUDY    63  50  62 N14       29.85R
$$

  *****  SOME WEATHER IN NEARBY STATES *****

CITY           SKY/WX    TMP DP  RH WIND       PRES   REMARKS
GLASGOW MT     FAIR      65  48  54 SE10      29.73R
GREAT FALLS MT MOCLDY    64  36  35 NW13      29.85R
CHEYENNE WY    FAIR      69  35  28 W13G20    30.01R
SCOTTSBLUFF NE FAIR      71  46  40 N8        29.80R
OMAHA NE       FAIR      74  64  71 N5        29.68R
DES MOINES IA  CLOUDY    71  65  81 SW9       29.69R
DAVENPORT IA   NOT AVBL
CHICAGO IL     CLOUDY    68  64  87 N7        29.82S
EAU CLAIRE WI  FAIR      66  64  93 S7        29.57R
LA CROSSE WI   LGT RAIN  70  66  87 S7        29.64R
$$

  *****  SOME NATIONAL WEATHER *****

CITY           SKY/WX    TMP DP  RH WIND       PRES   REMARKS
LA GUARDIA NY  MOCLDY    75  52  44 SW8       30.11S
RALEIGH NC     FAIR      64  57  78 CALM      30.21R
ATLANTA GA     MOCLDY    76  66  71 SE7       30.15R
NEW ORLEANS LA CLOUDY    76  70  82 SE7       30.00R
OKLAHOMA CITY  FAIR      78  66  66 S14       29.83R
ALBUQUERQUE NM FAIR      83  18   9 SW6       29.96R
SALT LAKE CITY FAIR      76  46  34 N7        29.87R
LOS ANGELES CA FAIR      64  60  87 W7        29.89R
BOISE ID       FAIR      76  31  19 W5        29.84R
SEATTLE WA     MOCLDY    63  51  65 W7        30.07R
$$

*** WEATHER ACROSS MANITOBA...SASKATCHEWAN AND ONTARIO ***
                ***ONTARIO***

CITY           SKY/WX    TMP DP  RH WIND       PRES   REMARKS
GERALDTON      PTCLDY    57  50  77 E5        29.75S
THUNDER BAY    LGT RAIN  54  52  94 E13       29.65F
SIOUX LOOKOUT  CLOUDY    66  50  55 E5        29.68R
TORONTO        LGT RAIN  64  52  63 SW7       30.00R
BIG TROUT LK   CLOUDY    54  50  87 NE5       29.85R
PICKLE LAKE    NOT AVBL
DRYDEN         MOCLDY    63  59  88 E3        29.67S
KENORA         CLOUDY    59  59 100 N7        29.70R
$$
                *** MANITOBA***

CITY           SKY/WX    TMP DP  RH WIND       PRES   REMARKS
BRANDON        PTCLDY    57  50  77 NW8       29.72R
DAUPHIN        PTCLDY    64  57  77 SE5       29.70R
ISLAND LAKE    DRIZZLE   54  54 100 E6        29.79R FOG
PILOT MOUND      N/A     63  59  88 SE5         N/A
THE PAS        CLOUDY    54  52  94 N7        29.74R
THOMPSON       LGT RAIN  52  50  93 E8        29.81R
WINNIPEG       MOCLDY    61  59  94 S7        29.69R
LYNN LAKE      LGT RAIN  46  46 100 NE13G20   29.85S FOG
CHURCHILL      MOCLDY    43  37  81 E10       30.08R
GILLAM         CLOUDY    52  45  76 NE12G18   29.90R
$$
                ***SASKATCHEWAN***

CITY           SKY/WX    TMP DP  RH WIND       PRES   REMARKS
ESTEVAN        MOCLDY    61  55  82 N2        29.77R
KINDERSLEY     MOCLDY    55  54  94 SW5       29.78R
LLOYDMINSTER   MOCLDY    54  48  82 NE9       29.85R
PRINCE ALBERT  CLOUDY    57  52  82 N5        29.78R
REGINA         MOCLDY    61  52  72 SW8       29.77R
YORKTON        CLEAR     63  50  63 W3        29.75R
N. BATTLEFORD  CLOUDY    55  52  88 N10       29.80R
LA RONGE       CLOUDY    48  45  87 N8        29.84R
SASKATOON      PTCLDY    59  55  88 E2        29.78R
SWIFT CURRENT  MOCLDY    55  48  76 NE6       29.80S
$$
NOTE: THESE ARE AUTOMATED STATIONS WITH LIMITED QUALITY CONTROL
      "FAIR" INDICATES FEW OR NO CLOUDS BELOW 12,000 FEET WITH NO
      SIGNIFICANT WEATHER AND/OR OBSTRUCTIONS TO VISIBILITY.
      SKY/WX - SKY CONDITION AND SIGNIFICANT WEATHER.
      TMP - AIR TEMPERATURE.    DP   - DEWPOINT TEMPERATURE.
      RH  - RELATIVE HUMIDITY.  PRES - PRESSURE.
      HX  - HEAT INDEX.         WCI  - WIND CHILL INDEX.
$




USA.gov is the U.S. government's official web portal to all federal, state and local government web resources and services.